Location: Unspecified
(48.5670°N, 0.0000°E)
Time: 15:52:23
(UTC+00:00)

Transit 4A - Pass Details

Date: 28 August 2019
Orbit: 867 x 978 km, 66.8° (Epoch: 17 October)

Event Time Altitude Azimuth Distance (km) Brightness Sun altitude
Rises 20:37:46 0° 295° (WNW) 3,677 12.6 -16.7°
Reaches altitude 10° 20:41:40 10° 318° (NW) 2,720 11.6 -17.2°
Maximum altitude 20:45:11 15° 352° (N) 2,355 10.6 -17.7°
Drops below altitude 10° 20:48:41 10° 26° (NNE) 2,690 10.5 -18.1°
Sets 20:52:30 0° 49° (NE) 3,612 10.9 -18.6°
